CW2654 Weather Reports


Display with metric or nautical units.
time (UTC)temp
F
wind
direction
speed
MPH
gust
MPH
rain 1hr
in
rain 24hr
in
rain mn
in
humidity
%
barometer
mb
20260506184559 59 223 1.0 6.0 0.00 0.00 0.00 85 1021.4
20260506183053 58 263 0.0 6.0 0.00 0.00 0.00 86 1021.3
20260506181553 58 0 0.0 5.0 0.00 0.00 0.00 88 1021.1
20260506180055 58 0 0.0 5.0 0.00 0.00 0.00 88 1021.2
20260506174554 57 304 0.0 3.0 0.00 0.00 0.00 89 1021.0
20260506173104 56 162 0.0 6.0 0.00 0.00 0.00 89 1021.0
20260506171602 56 258 1.0 6.0 0.00 0.00 0.00 89 1021.0
20260506170059 57 0 1.0 4.0 0.00 0.00 0.00 89 1021.0
20260506164610 57 0 0.0 4.0 0.00 0.00 0.00 91 1020.9
20260506163059 56 0 0.0 3.0 0.00 0.00 0.00 92 1020.5
20260506161555 55 0 0.0 4.0 0.00 0.00 0.00 94 1020.2
20260506160107 54 0 4.0 9.0 0.00 0.00 0.00 94 1020.2
20260506154555 53 0 0.0 2.0 0.00 0.00 0.00 94 1020.8
20260506153101 53 0 0.0 3.0 0.00 0.00 0.00 94 1021.0
20260506151550 54 0 0.0 3.0 0.00 0.00 0.00 93 1021.0
20260506150049 54 0 0.0 1.0 0.00 0.00 0.00 94 1020.7
20260506144551 54 257 0.0 2.0 0.00 0.00 0.00 94 1020.4
20260506143053 54 0 0.0 2.0 0.00 0.00 0.00 94 1020.0
20260506141606 53 267 0.0 3.0 0.00 0.00 0.00 94 1020.1
20260506140050 53 0 0.0 3.0 0.00 0.00 0.00 94 1019.9
20260506134549 53 0 0.0 4.0 0.00 0.00 0.00 94 1019.8
20260506133048 53 0 0.0 4.0 0.00 0.00 0.00 95 1019.5
20260506131555 53 0 0.0 3.0 0.00 0.00 0.00 95 1019.6
20260506130051 53 0 0.0 6.0 0.00 0.00 0.00 95 1019.6
20260506124553 53 0 0.0 1.0 0.00 0.00 0.00 95 1019.5
20260506123051 53 0 0.0 2.0 0.00 0.00 0.00 94 1019.5
20260506121559 54 0 0.0 3.0 0.00 0.00 0.00 94 1019.5
20260506120118 54 0 0.0 3.0 0.00 0.00 0.00 95 1019.1
20260506114550 54 0 0.0 0.0 0.00 0.00 0.00 96 1019.1
20260506113059 54 0 0.0 0.0 0.00 0.00 0.00 95 1018.9
20260506111552 54 0 0.0 0.0 0.00 0.00 0.00 95 1018.6
20260506110056 54 0 0.0 0.0 0.00 0.00 0.00 95 1018.4
20260506104554 54 0 0.0 0.0 0.00 0.00 0.00 95 1018.3
20260506103055 54 0 0.0 0.0 0.00 0.00 0.00 95 1018.0
20260506101554 54 0 0.0 2.0 0.00 0.00 0.00 95 1017.9
20260506100056 54 0 0.0 1.0 0.00 0.00 0.00 95 1017.9
20260506094553 54 0 0.0 1.0 0.00 0.00 0.00 95 1018.1
20260506093055 54 0 0.0 0.0 0.00 0.00 0.00 95 1017.9
20260506091550 54 0 0.0 0.0 0.00 0.00 0.00 95 1018.0
20260506090053 55 0 0.0 0.0 0.00 0.00 0.00 94 1017.9
20260506084553 55 0 0.0 1.0 0.00 0.00 0.00 94 1017.9
20260506083055 55 0 0.0 1.0 0.00 0.00 0.00 94 1017.9
20260506081552 55 0 0.0 1.0 0.00 0.00 0.00 94 1017.8
20260506073059 55 0 0.0 1.0 0.00 0.00 0.00 94 1017.6
20260506071554 55 0 0.0 1.0 0.00 0.00 0.00 94 1017.5
20260506070114 55 0 0.0 1.0 0.00 0.00 0.00 94 1017.4
20260506061551 55 0 0.0 2.0 0.00 0.00 0.00 93 1017.1
20260506050112 55 286 0.0 1.0 0.00 0.00 0.00 93 1016.9
20260506044601 56 0 0.0 0.0 0.00 0.00 0.00 93 1016.8
20260506043052 56 0 0.0 0.0 0.00 0.00 0.00 92 1016.8
20260506041555 56 0 0.0 1.0 0.00 0.00 0.00 92 1016.6
20260506040100 57 0 0.0 0.0 0.00 0.00 0.00 91 1016.4
20260506034551 57 0 0.0 0.0 0.00 0.00 0.00 90 1016.3
20260506033049 57 0 0.0 0.0 0.00 0.00 0.00 90 1016.2
20260506031559 58 0 0.0 0.0 0.00 0.00 0.00 88 1015.9
20260506030111 58 0 0.0 0.0 0.00 0.00 0.00 87 1015.7
20260506024552 58 0 0.0 0.0 0.00 0.00 0.00 86 1015.8
20260506023056 58 0 0.0 0.0 0.00 0.00 0.00 86 1015.5
20260506021548 58 0 0.0 0.0 0.00 0.00 0.00 85 1015.6
20260506020051 58 0 0.0 2.0 0.00 0.00 0.00 84 1015.7
20260506014555 58 0 0.0 1.0 0.00 0.00 0.00 83 1015.6
20260506013051 59 0 0.0 2.0 0.00 0.00 0.00 84 1015.5
20260506011558 59 0 0.0 2.0 0.00 0.00 0.00 83 1015.5
20260506010058 59 0 0.0 1.0 0.00 0.00 0.00 83 1015.4
20260506004625 59 0 0.0 3.0 0.00 0.00 0.00 83 1015.5
20260506003051 59 0 0.0 3.0 0.00 0.00 0.00 84 1015.6
20260506001556 59 0 0.0 2.0 0.00 0.00 0.00 83 1015.6
20260506000054 59 0 0.0 2.0 0.00 0.00 0.00 83 1015.9
20260505234612 60 277 0.0 4.0 0.00 0.00 0.00 82 1016.0
20260505233048 60 0 0.0 2.0 0.00 0.00 0.00 80 1016.0
20260505231552 61 0 1.0 7.0 0.00 0.00 0.00 79 1016.0
20260505230052 61 261 1.0 5.0 0.00 0.00 0.00 82 1016.0
20260505224552 61 189 0.0 4.0 0.00 0.00 0.00 80 1016.2
20260505223102 61 281 1.0 3.0 0.00 0.00 0.00 80 1016.1
20260505221608 60 0 0.0 1.0 0.00 0.00 0.00 81 1016.3
20260505220124 60 0 0.0 2.0 0.00 0.00 0.00 82 1016.3
20260505214614 60 332 0.0 4.0 0.00 0.00 0.00 81 1016.2
20260505213055 60 299 0.0 7.0 0.00 0.00 0.00 81 1016.2
20260505211612 61 259 0.0 5.0 0.00 0.00 0.00 79 1016.4
20260505210054 60 0 0.0 3.0 0.00 0.00 0.00 81 1016.5
20260505204550 60 245 1.0 5.0 0.00 0.00 0.00 80 1016.6
20260505203052 59 0 0.0 1.0 0.00 0.00 0.00 84 1016.6
20260505201602 58 0 0.0 3.0 0.00 0.00 0.00 84 1016.8
20260505194604 57 0 0.0 2.0 0.00 0.00 0.00 87 1016.8
20260505193056 57 0 0.0 4.0 0.00 0.00 0.00 86 1016.8
20260505191555 56 0 0.0 2.0 0.00 0.00 0.00 86 1017.0
20260505190100 56 254 0.0 4.0 0.00 0.00 0.00 88 1016.8